Weather in Saada

Yemen     16°56′18″N   43°45′42″E
В апреле 2022 года жителям России запретили посещать сайт meteo.paraplan.net по решению Генеральной прокуратуры. Аудитория сайта уменьшилась в 10 раз. Владельцы сайта не видят смысла в поддержке погодного сервера в таких условиях. Сайт будет закрыт в октябре.
temp.,
°C
wind,
m/s
gust,
m/s
humid.,
%
clouds,
%
prec.,
mm/h
press.,
hPa
HPBL,
m
3 october, mon
mon300:00+20sse125725 0.0 101272
03:00+19se115888 0.1 101170
06:00+19e244396 0.1 1012186
09:00+23se441768 0.1 10131675
12:00+26ssw441557 0.0 10113107
15:00+27sw561515 0.0 10083521
18:00+23sse133113 0.0 1010326
21:00+20s11541 0.2 101449
4 october, tue
tue400:00+18s00580 0.0 101311
03:00+17nne33290 0.0 101422
06:00+15nnw22244 0.0 101512
09:00+23ne67170 0.0 10141609
12:00+27ne77125 0.0 10123033
15:00+27ne86123 0.0 10103189
18:00+23ene710144 0.0 1012314
21:00+20ene46185 0.0 101697
5 october, wed
wed500:00+18ne35211 0.0 101667
03:00+17nne22235 0.0 101519
06:00+16nne33255 0.0 101728
09:00+24e98192 0.0 10162688
12:00+26ene87167 0.0 10143257
15:00+27ene771532 0.0 10123287
18:00+23ene710195 0.0 1013316
21:00+21ne45221 0.0 101669
6 october, thu
thu600:00+19nne23250 0.0 101620
03:00+17ne23275 0.0 101618
06:00+16n22325 0.0 101711
09:00+23e56225 0.0 10162492
12:00+27ene651611 0.0 10133244
15:00+27ene751544 0.0 10103447
18:00+24ene8111943 0.0 1012393
21:00+21e472662 0.0 1015122
7 october, fri
fri700:00+18ese22323 0.0 101514
03:00+17nw113611 0.0 101411
06:00+16n22375 0.0 101511
09:00+23e46225 0.0 10152719
12:00+26ene661620 0.0 10113296
15:00+27ene751538 0.0 10093468
18:00+24ene9121883 0.0 1011427
21:00+21ene492148 0.0 1014144